Location: Lafig�re
(44.4503°N, 4.0357°E)
Time: 23:53:23
(UTC+00:00)

Courier 1B - Visible Passes

Search period start: 09 May 2021 00:00
Search period end: 19 May 2021 00:00
Orbit: 962 x 1209 km, 28.3° (Epoch: 09 May)

Date Brightness Start Highest point End Pass type
(mag) Time Alt. Az. Time Alt. Az. Time Alt. Az.
10 May 9.8 03:18:58 10° S 03:22:15 13° SSE 03:25:34 10° SE visible
12 May 9.5 03:23:09 10° SSW 03:27:58 18° SSE 03:32:52 10° SE visible
13 May 9.5 02:31:38 12° S 02:34:23 15° SSE 02:38:26 10° SE visible
14 May 9.7 01:40:58 12° SSE 01:40:58 12° SSE 01:43:23 10° SE visible
14 May 9.3 03:28:17 10° SW 03:33:46 21° S 03:39:22 10° SE visible
15 May 9.3 02:37:09 15° SSW 02:40:09 19° SSE 02:45:17 10° SE visible
16 May 9.3 01:46:28 17° SSE 01:46:33 17° SSE 01:51:00 10° SE visible
16 May 9.1 03:33:56 10° SW 03:39:37 23° S 03:45:26 10° SE visible
17 May 9.8 00:55:48 11° SE 00:55:48 11° SE 00:56:21 10° SE visible
17 May 9.1 02:42:41 17° SSW 02:45:58 22° S 02:51:34 10° SE visible
18 May 9.1 01:52:02 20° S 01:52:21 20° S 01:57:35 10° SE visible
